When you browse on this site, cookies collect data to enhance your experience and personalize the content and advertising you see.
Visit our Privacy Policy to learn more. By continuing to use the site, you agree to this use of cookies and data.
  • In Hungary
  • List of Countries
  • For 7 days
  • Water Temperature
  • Weather Map
  • News
  • Weather Widgets
  • user-avatar
    Login

    Hourly Weather Tivoli

    Today, 3 April, Friday

    Time Temperature Precipitation Wind Pressure Humidity
    00:00 +6°C° 0 mm 1 mps 739 mmHg 78%
    01:00 +6°C° 0 mm 1 mps 738 mmHg 78%
    02:00 +6°C° 0 mm 1 mps 738 mmHg 78%
    03:00 +6°C° 0 mm 1 mps 738 mmHg 79%
    04:00 +6°C° 0 mm 1 mps 737 mmHg 80%
    05:00 +6°C° 0 mm 1 mps 738 mmHg 78%
    06:00 +7°C° 0 mm 1 mps 738 mmHg 77%
    07:00 +7°C° 0 mm 1 mps 738 mmHg 76%
    08:00 +10°C° 0 mm 1 mps 738 mmHg 68%
    09:00 +12°C° 0 mm 1 mps 738 mmHg 60%
    10:00 +14°C° 0 mm 1 mps 739 mmHg 52%
    11:00 +15°C° 0 mm 1 mps 739 mmHg 50%
    12:00 +16°C° 0 mm 1 mps 739 mmHg 48%
    13:00 +18°C° 0 mm 1 mps 739 mmHg 46%
    14:00 +18°C° 0 mm 1 mps 739 mmHg 48%
    15:00 +16°C° 0 mm 1 mps 738 mmHg 49%
    16:00 +16°C° 0 mm 2 mps 738 mmHg 51%
    17:00 +14°C° 0 mm 1 mps 738 mmHg 58%
    18:00 +13°C° 0 mm 1 mps 738 mmHg 66%
    19:00 +11°C° 0 mm 1 mps 738 mmHg 73%
    20:00 +10°C° 0 mm 1 mps 739 mmHg 74%
    21:00 +10°C° 0 mm 1 mps 739 mmHg 76%
    22:00 +9°C° 0 mm 1 mps 740 mmHg 78%
    23:00 +8°C° 0 mm 1 mps 740 mmHg 78%

    Tomorrow, 4 April, Saturday

    Time Temperature Precipitation Wind Pressure Humidity
    00:00 +7°C° 0 mm 2 mps 740 mmHg 78%
    01:00 +6°C° 0 mm 2 mps 740 mmHg 79%
    02:00 +6°C° 0 mm 2 mps 740 mmHg 76%
    03:00 +5°C° 0 mm 2 mps 740 mmHg 74%
    04:00 +5°C° 0 mm 2 mps 740 mmHg 72%
    05:00 +5°C° 0 mm 2 mps 740 mmHg 68%
    06:00 +6°C° 0 mm 2 mps 740 mmHg 65%
    07:00 +6°C° 0 mm 2 mps 741 mmHg 62%
    08:00 +9°C° 0 mm 2 mps 741 mmHg 55%
    09:00 +13°C° 0 mm 1 mps 741 mmHg 49%
    10:00 +15°C° 0 mm 1 mps 742 mmHg 43%
    11:00 +18°C° 0 mm 1 mps 742 mmHg 40%
    12:00 +18°C° 0 mm 2 mps 742 mmHg 38%
    13:00 +19°C° 0 mm 2 mps 742 mmHg 35%
    14:00 +18°C° 0 mm 2 mps 742 mmHg 36%
    15:00 +18°C° 0 mm 3 mps 742 mmHg 38%
    16:00 +18°C° 0 mm 3 mps 742 mmHg 39%
    17:00 +16°C° 0 mm 3 mps 742 mmHg 45%
    18:00 +13°C° 0 mm 3 mps 742 mmHg 50%
    19:00 +11°C° 0 mm 3 mps 742 mmHg 56%
    20:00 +10°C° 0 mm 3 mps 743 mmHg 57%
    21:00 +9°C° 0 mm 2 mps 743 mmHg 59%
    22:00 +8°C° 0 mm 2 mps 744 mmHg 61%
    23:00 +8°C° 0 mm 2 mps 744 mmHg 63%

    Day after tomorrow, 5 April, Sunday

    Time Temperature Precipitation Wind Pressure Humidity
    00:00 +8°C° 0 mm 2 mps 744 mmHg 64%
    01:00 +7°C° 0 mm 2 mps 744 mmHg 66%
    02:00 +7°C° 0 mm 2 mps 744 mmHg 67%
    03:00 +7°C° 0 mm 2 mps 744 mmHg 69%
    04:00 +6°C° 0 mm 2 mps 744 mmHg 70%
    05:00 +7°C° 0 mm 2 mps 744 mmHg 70%
    06:00 +7°C° 0 mm 2 mps 744 mmHg 69%
    07:00 +8°C° 0 mm 2 mps 744 mmHg 68%
    08:00 +10°C° 0 mm 2 mps 744 mmHg 61%
    09:00 +13°C° 0 mm 2 mps 745 mmHg 53%
    10:00 +16°C° 0 mm 2 mps 745 mmHg 45%
    11:00 +17°C° 0 mm 2 mps 745 mmHg 42%
    12:00 +18°C° 0 mm 2 mps 745 mmHg 39%
    13:00 +20°C° 0 mm 1 mps 745 mmHg 36%
    14:00 +19°C° 0 mm 2 mps 745 mmHg 39%
    15:00 +18°C° 0 mm 2 mps 744 mmHg 42%
    16:00 +18°C° 0 mm 3 mps 744 mmHg 44%
    17:00 +16°C° 0 mm 2 mps 744 mmHg 50%
    18:00 +14°C° 0 mm 2 mps 744 mmHg 57%
    19:00 +12°C° 0 mm 1 mps 745 mmHg 63%
    20:00 +11°C° 0 mm 1 mps 745 mmHg 64%
    21:00 +11°C° 0 mm 1 mps 745 mmHg 66%
    22:00 +10°C° 0 mm 1 mps 746 mmHg 67%
    23:00 +10°C° 0 mm 1 mps 746 mmHg 67%

    6 April, Monday

    Time Temperature Precipitation Wind Pressure Humidity
    00:00 +10°C° 0 mm 1 mps 746 mmHg 68%
    01:00 +9°C° 0 mm 1 mps 746 mmHg 68%
    02:00 +9°C° 0 mm 1 mps 746 mmHg 68%
    03:00 +8°C° 0 mm 2 mps 746 mmHg 68%
    04:00 +8°C° 0 mm 2 mps 746 mmHg 68%
    05:00 +8°C° 0 mm 2 mps 746 mmHg 67%
    06:00 +9°C° 0 mm 2 mps 746 mmHg 66%
    07:00 +9°C° 0 mm 2 mps 746 mmHg 65%
    08:00 +13°C° 0 mm 1 mps 747 mmHg 58%
    09:00 +16°C° 0 mm 1 mps 747 mmHg 51%
    10:00 +19°C° 0 mm 1 mps 748 mmHg 44%
    11:00 +20°C° 0 mm 1 mps 748 mmHg 43%
    12:00 +20°C° 0 mm 1 mps 748 mmHg 42%
    13:00 +20°C° 0 mm 2 mps 748 mmHg 41%
    14:00 +19°C° 0 mm 2 mps 748 mmHg 45%
    15:00 +18°C° 0 mm 2 mps 748 mmHg 49%
    16:00 +18°C° 0 mm 2 mps 748 mmHg 53%
    17:00 +16°C° 0 mm 2 mps 748 mmHg 57%
    18:00 +15°C° 0 mm 1 mps 748 mmHg 62%
    19:00 +14°C° 0 mm 1 mps 748 mmHg 66%
    20:00 +13°C° 0 mm 1 mps 749 mmHg 68%
    21:00 +12°C° 0 mm 1 mps 749 mmHg 70%
    22:00 +12°C° 0 mm 1 mps 749 mmHg 72%
    23:00 +11°C° 0 mm 1 mps 749 mmHg 73%

    7 April, Tuesday

    Time Temperature Precipitation Wind Pressure Humidity
    00:00 +11°C° 0 mm 1 mps 750 mmHg 75%
    01:00 +11°C° 0 mm 1 mps 750 mmHg 76%
    02:00 +11°C° 0 mm 1 mps 750 mmHg 78%
    03:00 +10°C° 0 mm 1 mps 750 mmHg 79%
    04:00 +10°C° 0 mm 1 mps 749 mmHg 80%
    05:00 +11°C° 0 mm 1 mps 750 mmHg 79%
    06:00 +11°C° 0 mm 1 mps 750 mmHg 77%
    07:00 +12°C° 0 mm 1 mps 750 mmHg 76%
    08:00 +14°C° 0 mm 1 mps 750 mmHg 68%
    09:00 +18°C° 0 mm 1 mps 750 mmHg 59%
    10:00 +20°C° 0 mm 1 mps 750 mmHg 51%
    11:00 +21°C° 0 mm 1 mps 750 mmHg 50%
    12:00 +21°C° 0 mm 1 mps 751 mmHg 48%
    13:00 +22°C° 0 mm 1 mps 751 mmHg 46%
    14:00 +20°C° 0.1 mm 2 mps 750 mmHg 50%
    15:00 +20°C° 0.1 mm 2 mps 750 mmHg 53%
    16:00 +19°C° 0.1 mm 2 mps 750 mmHg 57%
    17:00 +18°C° 0.2 mm 2 mps 750 mmHg 63%
    18:00 +16°C° 0.2 mm 1 mps 750 mmHg 69%
    19:00 +15°C° 0.2 mm 1 mps 749 mmHg 75%
    20:00 +14°C° 0 mm 1 mps 750 mmHg 76%
    21:00 +14°C° 0 mm 1 mps 750 mmHg 78%
    22:00 +12°C° 0 mm 0 mps 750 mmHg 79%
    23:00 +13°C° 0 mm 1 mps 750 mmHg 80%

    8 April, Wednesday

    Time Temperature Precipitation Wind Pressure Humidity
    00:00 +12°C° 0 mm 1 mps 750 mmHg 81%
    01:00 +12°C° 0 mm 1 mps 750 mmHg 82%
    02:00 +12°C° 0 mm 1 mps 750 mmHg 81%
    03:00 +12°C° 0 mm 1 mps 750 mmHg 81%
    04:00 +12°C° 0 mm 1 mps 750 mmHg 81%
    05:00 +12°C° 0 mm 1 mps 750 mmHg 79%
    06:00 +13°C° 0 mm 1 mps 750 mmHg 78%
    07:00 +13°C° 0 mm 1 mps 750 mmHg 77%
    08:00 +15°C° 0.1 mm 1 mps 750 mmHg 72%
    09:00 +18°C° 0.1 mm 1 mps 750 mmHg 66%
    10:00 +19°C° 0.1 mm 1 mps 750 mmHg 61%
    11:00 +20°C° 0.4 mm 1 mps 750 mmHg 60%
    12:00 +19°C° 0.4 mm 2 mps 750 mmHg 58%
    13:00 +19°C° 0.4 mm 2 mps 750 mmHg 57%
    14:00 +19°C° 0.5 mm 2 mps 750 mmHg 60%
    15:00 +19°C° 0.5 mm 2 mps 750 mmHg 62%
    16:00 +18°C° 0.5 mm 2 mps 749 mmHg 65%
    17:00 +17°C° 0.3 mm 2 mps 749 mmHg 70%
    18:00 +15°C° 0.3 mm 1 mps 749 mmHg 74%
    19:00 +14°C° 0.3 mm 1 mps 749 mmHg 79%
    20:00 +14°C° 0 mm 1 mps 749 mmHg 80%
    21:00 +13°C° 0 mm 1 mps 750 mmHg 80%
    22:00 +12°C° 0 mm 1 mps 750 mmHg 81%
    23:00 +12°C° 0 mm 1 mps 750 mmHg 81%
    Show more